Estación Meteorológica Peña el Pijo (Robertgarden) [ 09/29/20 13:06:54 CEST ]

Fecha Hora Presion(HPa) Temp (°C) Humedad % Rocio (°C) Viento ( m/s) Direccion Lluvia 1Hora(mm) Lluvia 24H(mm) LLuvia Total(mm)
2020-Feb-04 01:09:38 1019.700 - - - - N     39.88
2020-Feb-04 02:10:17 1019.300 - - - - N     39.88
2020-Feb-04 03:09:36 1018.900 - - - - N     39.88
2020-Feb-04 04:09:56 1018.900 - - - - N     39.88
2020-Feb-04 05:09:52 1018.300 - - - - N     39.88
2020-Feb-04 06:12:11 1018.000 - - - - N     39.88
2020-Feb-04 07:08:56 1018.000 - - - - N     39.88
2020-Feb-04 08:09:11 1018.100 - - - - N     39.88
2020-Feb-04 09:09:04 1018.600 - - - - N     39.88
2020-Feb-04 10:09:36 1018.800 - - - - N     39.88
2020-Feb-04 11:09:11 1018.800 - - - - N     39.88
2020-Feb-04 12:09:10 1018.300 - - - - N     39.88
2020-Feb-04 13:09:06 1017.300 - - - - N     39.88
2020-Feb-04 14:09:04 1016.100 - - - - N     39.88
2020-Feb-04 15:09:23 1015.200 - - - - N     39.88
2020-Feb-04 16:09:21 1015.100 - - - - N     39.88
2020-Feb-04 17:08:53 1014.800 - - - - N     39.88
2020-Feb-04 18:08:59 1015.300 - - - - N     39.88
2020-Feb-04 19:08:51 1015.700 - - - - N     39.88
2020-Feb-04 20:09:29 1016.300 - - - - N     39.88
2020-Feb-04 21:09:11 1016.500 - - - - N     39.88
2020-Feb-04 22:08:56 1017.100 - - - - N     39.88
2020-Feb-04 23:09:18 1017.500 - - - - N     39.88

Temperatura Máxima:    Temperatura Mínima:
Presión Máxima:1019.700 Hpa    Presión Mínima:1014.800 Hpa


Volver